Flag for Spain Weather past 2 weeks in Madrid, Spain

Now
88 °F

Sunny.


Feels Like: 84 °F
Forecast: 65 / 98 °F
Wind: 2 mph from North

Location: Madrid / Cuatro Vientos

Current Time: Aug 5, 2015 at 12:44:45 PM

Latest Report: Aug 5, 2015 at 12:00 PM


Visibility: 10 mi

Pressure: 30.04 "Hg (27.90 "Hg at 658m altitude)

Humidity: 21%

Dew point: 43 °F

Location of MadridLocation

Historic Weather in Madrid — Graph

°F

Madrid temperature yesterday

Maximum temperature yesterday: 95 °F (at 4:30 PM)
Minimum temperature yesterday: 70 °F (at 7:00 AM)
Average temperature yesterday: 87 °F

Past Weeks' High & Low Weather Summary

 TemperatureHumidityPressure
High100 °F (Jul 27, 4:30 PM)78% (Aug 2, 7:00 AM)30.09 "Hg (Aug 2, 7:00 AM)
Low63 °F (Aug 1, 7:00 AM)7% (Jul 29, 6:30 PM)29.74 "Hg (Jul 31, 6:00 PM)
Average87 °F30%29.98 "Hg
* Reported Jul 21 11:00 AM — Aug 5 11:30 AM, Madrid, Weather by CustomWeather, © 2015

Note: Actual official high and low records may vary slightly from our data, if they occured in-between our weather recording intervals... More about our weather records

Advertising

Madrid weather history for previous 24 hours

 ConditionsComfort  
Time TempWeatherWind HumidityBarometerVisibility
11:30 AM
Wed, Aug 5
84 °FSunny.2 mph25%30.04 "Hg10 mi
11:00 AM82 °FPassing clouds.3 mph26%30.04 "HgN/A
10:30 AM82 °FPassing clouds.3 mph28%30.04 "HgN/A
10:00 AM81 °FPassing clouds.5 mph28%30.04 "HgN/A
9:30 AM77 °FPassing clouds.5 mph32%30.04 "HgN/A
9:00 AM77 °FSunny.6 mph32%30.04 "Hg10 mi
8:30 AM75 °FSunny.2 mph34%30.04 "Hg10 mi
8:00 AM73 °FPassing clouds.5 mph31%30.04 "HgN/A
7:30 AM70 °FPassing clouds.3 mph35%30.04 "HgN/A
7:00 AM70 °FClear.No wind38%30.01 "Hg10 mi
11:30 PM
Tue, Aug 4
77 °FClear.6 mph24%30.01 "Hg10 mi
10:30 PM81 °FClear.7 mph23%30.01 "Hg10 mi
10:00 PM82 °FSunny.6 mph20%29.98 "Hg10 mi
9:30 PM84 °FSunny.8 mph19%29.98 "Hg10 mi
9:00 PM90 °FPassing clouds.9 mph16%29.98 "HgN/A
8:30 PM91 °FSunny.12 mph14%29.98 "Hg10 mi
8:00 PM93 °FPassing clouds.12 mph13%29.98 "HgN/A
7:30 PM95 °FPassing clouds.8 mph11%29.98 "HgN/A
7:00 PM95 °FPassing clouds.8 mph12%29.98 "HgN/A
6:30 PM95 °FPassing clouds.8 mph13%30.01 "HgN/A
6:00 PM95 °FPassing clouds.12 mph13%30.01 "HgN/A
5:30 PM95 °FSunny.8 mph15%30.01 "Hg10 mi
5:00 PM95 °FPassing clouds.10 mph15%30.01 "HgN/A
4:30 PM95 °FPassing clouds.13 mph15%30.04 "HgN/A
4:00 PM93 °FSunny.7 mph20%30.04 "Hg10 mi
3:30 PM93 °FPassing clouds.8 mph21%30.04 "HgN/A
3:00 PM91 °FSunny.5 mph23%30.04 "Hg10 mi
2:30 PM91 °FPassing clouds.9 mph24%30.07 "HgN/A
2:00 PM90 °FPassing clouds.8 mph24%30.07 "HgN/A
1:30 PM91 °FPassing clouds.5 mph24%30.07 "HgN/A
1:00 PM88 °FPassing clouds.8 mph25%30.07 "HgN/A
12:30 PM88 °FPassing clouds.7 mph27%30.07 "HgN/A
12:00 PM88 °FPassing clouds.6 mph29%30.07 "HgN/A
Weather by CustomWeather, © 2015

See weather overviewHow to use our weather pages